Terminal Aerodrome Forecast
Issued by NWS

Home | Current Version | Previous Version | Graphics & Text | Print | Product List | Glossary On
Versions: 1 2 3 4 5 6 7 8 9 10 11 12 13
000
FTUS43 KLSX 011725
TAFSUS
TAF
KSUS 011725Z 0118/0218 12004KT P6SM SCT050 SCT250
     FM020000 00000KT P6SM FEW250
     FM021500 VRB05KT P6SM SCT250=

USA.gov is the U.S. government's official web portal to all federal, state and local government web resources and services.